Regional Weather Roundup
Issued by NWS

Home | Current Version | Previous Version | Graphics & Text | Print | Product List | Glossary On
Versions: 1 2 3 4 5 6 7 8 9 10 11 12 13 14 15 16 17 18 19 20 21 22 23 24 25 26 27 28 29 30 31 32 33 34 35 36 37 38 39 40 41 42 43 44 45 46 47 48 49 50
000
ASUS43 KBIS 221602
RWRND

NORTH DAKOTA REGIONAL WEATHER ROUNDUP
NATIONAL WEATHER SERVICE BISMARCK ND
1000 AM CST MON JAN 22 2018

NOTE: "FAIR" INDICATES FEW OR NO CLOUDS BELOW 12,000 FEET WITH NO
SIGNIFICANT WEATHER AND/OR OBSTRUCTIONS TO VISIBILITY.


NDZ001>003-009>011-017-221700-
NORTHWEST NORTH DAKOTA

CITY           SKY/WX    TMP DP  RH WIND       PRES   REMARKS
WILLISTON      SUNNY     10   7  87 CALM      30.03S
MINOT          FOG       13  10  88 S3        30.05R VSB 1/4
MINOT AFB      FOG       13  10  88 CALM      30.04S VSB 1/8
$$

NDZ018>021-031>035-040>046-221700-
SOUTHWEST NORTH DAKOTA

CITY           SKY/WX    TMP DP  RH WIND       PRES   REMARKS
BISMARCK       FOG       19  16  88 NW5       30.06R VSB 1/2 WCI  12
DICKINSON      SUNNY     18  13  80 NW9       29.97S WCI   7
GARRISON         N/A      7   4  87 E5        30.04R WCI  -2
HETTINGER ARPT SUNNY     20  15  81 W3        30.00R
$$

NDZ004>008-012>016-024-026-027-054-221700-
NORTHEAST NORTH DAKOTA

CITY           SKY/WX    TMP DP  RH WIND       PRES   REMARKS
GRAND FORKS    CLOUDY    25  21  85 NE9       30.10S WCI  15
GRND FRKS AFB  CLOUDY    25  19  80 NE13      30.11S WCI  13
DEVILS LAKE    FLURRIES  22  21  96 E7        30.08R WCI  13
$$

NDZ022-023-025-028>030-036>039-047>053-221700-
SOUTHEAST NORTH DAKOTA

CITY           SKY/WX    TMP DP  RH WIND       PRES   REMARKS
FARGO          CLOUDY    26  24  92 N15       30.01F WCI  14
JAMESTOWN      CLOUDY    22  20  92 NE9       30.03F WCI  12
$$




USA.gov is the U.S. government's official web portal to all federal, state and local government web resources and services.